Location: Baia Mare
(47.6567°N, 23.5850°E)
Time: 14:14:06
(UTC+02:00)

ISS - Pass Details

Date: 27 December 2018
Orbit: 401 x 408 km, 51.6° (Epoch: 16 December)

Event Time Altitude Azimuth Distance (km) Brightness Sun altitude
Exits shadow 05:23:37 15° 136° (SE) 1,190 -0.9 -27.4°
Drops below altitude 10° 05:25:35 10° 99° (E) 1,464 0.0 -27.1°
Sets 05:28:17 0° 75° (ENE) 2,328 1.1 -26.6°
